ATLAS 5 CENTAUR DEB, 44686

Orbit data source: Space-Track

ATLAS 5 CENTAUR DEB, 44686 is space debris in HEO originally from a launch on Wed, 17 Oct 2018 UTC launched from the Air Force Eastern Test Range (AFETR). Debris objects in space refer to the collection of defunct objects orbiting the Earth. Examples of debris include non-operational satellites, rocket bodies, and fragments generated from explosions, collisions, or faulty payload assembly.

Loading next visibility...
Identifier
44686, 2018-079AY
Orbit
HEO
Country
Flag of USUS
Related business
Flag of USUnited Launch Alliance/Lockheed Martin (US)
Manufacturer
ULA Decatur
Mission
Spacecraft
Bus & Motor
Unknown
Mass
Unknown
Launch date (UTC)
2018-10-17 (7 years ago)
Launch vehicle
Unknown
Launch site
Air Force Eastern Test Range (AFETR)
Object type
Payload
Rocket body
Debris
Shape & HBR
Unknown shape, 1.1 m
Radar Cross Section
Large (>1 m²)

Expand to show TLE details & history
Last TLE update: 23 hours ago

TLE from 23 hours ago
0 ATLAS 5 CENTAUR DEB
1 44686U 18079AY  25286.51764559 -.00000060  00000-0  00000-0 0  9995
2 44686  12.1297  91.0554 4677898 203.3175 125.8342  1.69106283 39403
Epoch: 2025-10-13T12:25Z
TLE epoch observation values (Epoch: 2025-10-13T12:25:24.578Z)
Latitude
-0°
Longitude
-117.61766°
Altitude
34,355.382 km
Speed
2.485 km/s
True Right ascension
06h 04m 12s
True Declination
0° 00' 00"
Sunlit
Object was in daylight at epoch
Visualization orbit readout
Latitude
Unknown
Longitude
Unknown
Altitude
Unknown
Speed
Unknown
Apparent Right ascension
Unknown
Apparent Declination
Unknown
Sunlit
N/A
Visualization observer readout
Local Sidereal Time
05:35:51
Azimuth
Unknown
Elevation
Unknown
Doppler factor
Unknown
Orbital elements
Apogee altitude
37,305.825 km
Perigee altitude
9,461.359 km
Semi-major axis
29,761.729 km
Eccentricity
0.46779
Inclination
12.1297°
RAAN
91.0554°
Arg. of periapsis
203.3175°
True anomaly
156.73073°
Mean anomaly
125.8342°
Eccentric anomaly
142.24495°
Mean motion
0.42272 °/min
Orbital period
851.62 mins
BSTAR
0
Loading maneuver chart data...
Computing Atmospheric mass density...

Documentation

Showing up to 5 results
|